Weather History for Llano, TX

Change the Weather History Date:

Monday, September 30, 2013

  Actual Average (KBMQ) Record (KBMQ)
Temperature  
Mean Temperature 71 °F -  
Max Temperature 89 °F 81 °F 93 °F (1997)
Min Temperature 53 °F 60 °F 51 °F (1996)
Cooling Degree Days 6    
Growing Degree Days 21 (Base 50)    
Moisture  
Dew Point 58 °F    
Average Humidity 70    
Maximum Humidity 100    
Minimum Humidity 25    
Precipitation  
Precipitation 0.00 in - - ()
Sea Level Pressure  
Sea Level Pressure 29.93 in    
Wind  
Wind Speed 1 mph (ESE)    
Max Wind Speed 7 mph    
Max Gust Speed -    
Visibility 10 miles    
Events      
Averages and records for this station are not official NWS values.
T = Trace of Precipitation, MM = Missing Value Source: NWS Daily Summary

Daily Weather History Graph

Daily Weather History Graph

Search for Another Location

Airport:

Trip Planner

Search our weather history database for the weather conditions in past years. The results will help you decide how hot, cold, wet, or windy it might be!

Date:

Astronomy

Sep. 30, 2013 Rise Set
Actual Time 7:27 AM CDT 7:20 PM CDT
Civil Twilight 7:03 AM CDT 7:44 PM CDT
Nautical Twilight 6:35 AM CDT 8:12 PM CDT
Astronomical Twilight 6:07 AM CDT 8:40 PM CDT
Moon 3:21 AM CDT (9/30) 4:39 PM CDT (9/30)
Length of Visible Light 12h 41m
Length of Day
11h 52m
Waning Crescent, 19% of the Moon is Illuminated
Sep 30
Waning Crescent
Oct 4
New
Oct 11
First Quarter
Oct 18
Full
Oct 26
Last Quarter

Hourly Weather History & Observations

Time (CDT) Temp. Heat Index Dew Point Humidity Pressure Visibility Wind Dir Wind Speed Gust Speed Precip Events Conditions
12:15 AM 60.8 °F - 59.0 °F 94% 30.02 in 10.0 mi Calm Calm - N/A   Clear
12:35 AM 62.6 °F - 59.0 °F 88% 30.02 in 10.0 mi Calm Calm - N/A   Clear
12:55 AM 60.8 °F - 59.0 °F 94% 30.02 in 10.0 mi Calm Calm - N/A   Clear
1:15 AM 60.8 °F - 59.0 °F 94% 30.01 in 10.0 mi Calm Calm - N/A   Clear
1:35 AM 60.8 °F - 57.2 °F 88% 30.00 in 10.0 mi Calm Calm - N/A   Clear
1:55 AM 59.0 °F - 57.2 °F 94% 30.00 in 10.0 mi Calm Calm - N/A   Clear
2:15 AM 57.2 °F - 57.2 °F 100% 30.00 in 10.0 mi Calm Calm - N/A   Clear
2:35 AM 57.2 °F - 57.2 °F 100% 29.99 in 10.0 mi Calm Calm - N/A   Clear
2:55 AM 57.2 °F - 57.2 °F 100% 29.99 in 10.0 mi Calm Calm - N/A   Clear
3:15 AM 57.2 °F - 55.4 °F 94% 29.98 in 10.0 mi Calm Calm - N/A   Clear
3:35 AM 57.2 °F - 57.2 °F 100% 29.97 in 10.0 mi Calm Calm - N/A   Clear
3:55 AM 57.2 °F - 55.4 °F 94% 29.97 in 10.0 mi Calm Calm - N/A   Clear
4:15 AM 55.4 °F - 55.4 °F 100% 29.96 in 10.0 mi Calm Calm - N/A   Clear
4:35 AM 55.4 °F - 55.4 °F 100% 29.96 in 10.0 mi Calm Calm - N/A   Clear
4:55 AM 55.4 °F - 55.4 °F 100% 29.96 in 10.0 mi Calm Calm - N/A   Clear
5:15 AM 55.4 °F - 53.6 °F 94% 29.96 in 10.0 mi Calm Calm - N/A   Clear
5:35 AM 55.4 °F - 53.6 °F 94% 29.96 in 10.0 mi Calm Calm - N/A   Clear
5:55 AM 55.4 °F - 55.4 °F 100% 29.96 in 10.0 mi Calm Calm - N/A   Clear
6:15 AM 55.4 °F - 55.4 °F 100% 29.96 in 10.0 mi Calm Calm - N/A   Clear
6:35 AM 55.4 °F - 53.6 °F 94% 29.96 in 10.0 mi Calm Calm - N/A   Clear
6:55 AM 53.6 °F - 53.6 °F 100% 29.96 in 10.0 mi Calm Calm - N/A   Clear
7:15 AM 53.6 °F - 53.6 °F 100% 29.97 in 10.0 mi Calm Calm - N/A   Clear
7:35 AM 53.6 °F - 53.6 °F 100% 29.97 in 10.0 mi Calm Calm - N/A   Clear
7:55 AM 53.6 °F - 53.6 °F 100% 29.97 in 10.0 mi Calm Calm - N/A   Clear
8:15 AM 55.4 °F - 55.4 °F 100% 29.97 in 10.0 mi Calm Calm - N/A   Clear
8:35 AM 57.2 °F - 57.2 °F 100% 29.98 in 10.0 mi Calm Calm - N/A   Clear
8:55 AM 60.8 °F - 59.0 °F 94% 29.98 in 10.0 mi Calm Calm - N/A   Clear
9:15 AM 62.6 °F - 60.8 °F 94% 29.98 in 10.0 mi Calm Calm - N/A   Clear
9:35 AM 64.4 °F - 60.8 °F 88% 29.98 in 10.0 mi Calm Calm - N/A   Clear
9:55 AM 66.2 °F - 60.8 °F 83% 29.98 in 10.0 mi Calm Calm - N/A   Clear
10:15 AM 68.0 °F - 62.6 °F 83% 29.98 in 10.0 mi Calm Calm - N/A   Clear
10:35 AM 69.8 °F - 62.6 °F 78% 29.97 in 10.0 mi Calm Calm - N/A   Clear
10:55 AM 71.6 °F - 62.6 °F 73% 29.97 in 10.0 mi Calm Calm - N/A   Clear
11:15 AM 73.4 °F - 62.6 °F 69% 29.96 in 10.0 mi Calm Calm - N/A   Clear
11:35 AM 75.2 °F - 59.0 °F 57% 29.96 in 10.0 mi Calm Calm - N/A   Clear
11:55 AM 78.8 °F - 59.0 °F 51% 29.96 in 10.0 mi Calm Calm - N/A   Clear
12:15 PM 80.6 °F 80.8 °F 57.2 °F 45% 29.95 in 10.0 mi Calm Calm - N/A   Clear
12:35 PM 82.4 °F 82.0 °F 57.2 °F 42% 29.95 in 10.0 mi South 3.5 mph - N/A   Clear
12:55 PM 82.4 °F 82.5 °F 59.0 °F 45% 29.93 in 10.0 mi SW 3.5 mph - N/A   Clear
1:15 PM 84.2 °F 84.4 °F 60.8 °F 45% 29.93 in 10.0 mi Calm Calm - N/A   Clear
1:35 PM 84.2 °F 84.4 °F 60.8 °F 45% 29.92 in 10.0 mi ESE 3.5 mph - N/A   Clear
1:55 PM 84.2 °F 83.8 °F 59.0 °F 42% 29.91 in 10.0 mi Calm Calm - N/A   Clear
2:15 PM 86.0 °F 84.9 °F 57.2 °F 37% 29.89 in 10.0 mi Calm Calm - N/A   Clear
2:35 PM 86.0 °F - 50.0 °F 29% 29.89 in 10.0 mi West 3.5 mph - N/A   Clear
2:55 PM 87.8 °F - 50.0 °F 27% 29.88 in 10.0 mi Calm Calm - N/A   Clear
3:15 PM 87.8 °F - 51.8 °F 29% 29.88 in 10.0 mi South 4.6 mph - N/A   Clear
3:35 PM 87.8 °F - 48.2 °F 25% 29.87 in 10.0 mi Calm Calm - N/A   Clear
3:55 PM 89.6 °F 87.3 °F 53.6 °F 29% 29.86 in 10.0 mi Calm Calm - N/A   Clear
4:15 PM 87.8 °F 86.5 °F 57.2 °F 35% 29.86 in 10.0 mi SE 5.8 mph - N/A   Clear
4:35 PM 87.8 °F 86.5 °F 57.2 °F 35% 29.86 in 10.0 mi East 4.6 mph - N/A   Clear
4:55 PM 87.8 °F 86.5 °F 57.2 °F 35% 29.86 in 10.0 mi East 5.8 mph - N/A   Clear
5:15 PM 87.8 °F 86.5 °F 57.2 °F 35% 29.86 in 10.0 mi ESE 4.6 mph - N/A   Clear
5:35 PM 86.0 °F 85.4 °F 59.0 °F 40% 29.85 in 10.0 mi East 6.9 mph - N/A   Clear
5:55 PM 86.0 °F 86.1 °F 60.8 °F 43% 29.85 in 10.0 mi ESE 5.8 mph - N/A   Clear
6:15 PM 84.2 °F 84.4 °F 60.8 °F 45% 29.85 in 10.0 mi ESE 5.8 mph - N/A   Partly Cloudy
6:35 PM 84.2 °F 83.8 °F 59.0 °F 42% 29.86 in 10.0 mi ESE 4.6 mph - N/A   Clear
6:55 PM 82.4 °F 82.9 °F 60.8 °F 48% 29.86 in 10.0 mi ESE 4.6 mph - N/A   Clear
7:15 PM 78.8 °F - 60.8 °F 54% 29.86 in 10.0 mi Calm Calm - N/A   Clear
7:35 PM 75.2 °F - 62.6 °F 65% 29.87 in 10.0 mi Calm Calm - N/A   Clear
7:55 PM 75.2 °F - 60.8 °F 61% 29.87 in 10.0 mi Calm Calm - N/A   Clear
8:15 PM 73.4 °F - 60.8 °F 65% 29.88 in 10.0 mi Calm Calm - N/A   Clear
8:35 PM 71.6 °F - 60.8 °F 69% 29.89 in 10.0 mi East 3.5 mph - N/A   Clear
8:55 PM 71.6 °F - 60.8 °F 69% 29.89 in 10.0 mi East 4.6 mph - N/A   Clear
9:15 PM 71.6 °F - 59.0 °F 64% 29.90 in 10.0 mi East 4.6 mph - N/A   Clear
9:35 PM 71.6 °F - 57.2 °F 60% 29.90 in 10.0 mi East 4.6 mph - N/A   Clear
9:55 PM 71.6 °F - 57.2 °F 60% 29.91 in 10.0 mi ESE 4.6 mph - N/A   Clear
10:15 PM 69.8 °F - 57.2 °F 64% 29.91 in 10.0 mi ESE 4.6 mph - N/A   Clear
10:35 PM 69.8 °F - 57.2 °F 64% 29.91 in 10.0 mi East 3.5 mph - N/A   Clear
10:55 PM 69.8 °F - 57.2 °F 64% 29.92 in 10.0 mi Calm Calm - N/A   Clear
11:15 PM 69.8 °F - 57.2 °F 64% 29.92 in 10.0 mi East 3.5 mph - N/A   Clear
11:35 PM 68.0 °F - 57.2 °F 68% 29.91 in 10.0 mi Calm Calm - N/A   Clear
11:55 PM 68.0 °F - 57.2 °F 68% 29.91 in 10.0 mi East 3.5 mph - N/A   Clear